Location: Caltech
(34.1382°N, 118.1253°W)
Time: 01:42:03
(UTC-07:00)

UOSAT-12 - Visible Passes

Search period start: 23 May 2017 00:00
Search period end: 02 June 2017 00:00
Orbit: 604 x 650 km, 64.6° (Epoch: 22 May)

Date Brightness Start Highest point End Pass type
(mag) Time Alt. Az. Time Alt. Az. Time Alt. Az.
23 May 9.2 23:56:17 25° N 23:56:17 25° N 23:58:37 10° NNE visible
24 May 9.2 22:37:21 17° NE 22:37:21 17° NE 22:38:31 10° NE visible
25 May 9.6 00:14:33 17° NW 00:14:33 17° NW 00:17:32 10° N visible
25 May 8.1 22:55:24 41° NNE 22:55:24 41° NNE 22:58:27 10° NNE visible
26 May 8.8 21:35:55 17° ENE 21:35:55 17° ENE 21:37:29 10° ENE visible
26 May 8.7 23:13:05 29° WNW 23:13:49 31° NW 23:17:54 10° N visible
27 May 7.1 21:52:59 51° SE 21:53:32 56° ESE 21:57:59 10° NE visible
27 May 9.9 23:31:20 10° W 23:33:57 15° NW 23:36:37 10° NNW visible
28 May 9.0 20:32:33 10° ESE 20:33:48 11° ESE 20:35:04 10° E visible
28 May 7.6 22:08:52 10° SW 22:13:18 60° WNW 22:17:49 10° NNE visible
29 May 8.0 20:49:29 10° S 20:53:16 27° ESE 20:57:06 10° NE visible
29 May 9.2 22:29:28 10° WSW 22:33:16 26° NW 22:37:08 10° N visible
30 May 7.0 21:08:27 10° SSW 21:12:54 68° ESE 21:17:26 10° NE visible
30 May 10.2 22:51:22 10° WNW 22:53:27 13° NW 22:55:34 10° NNW visible
31 May 8.1 21:28:21 10° SW 21:32:43 49° WNW 21:37:10 10° NNE visible
01 Jun 9.7 21:49:09 10° WSW 21:52:43 23° NW 21:56:21 10° N visible
